Miscellaneous Local Product
Issued by NWS Hastings, NE

Home | Current Version | Previous Version | Graphics & Text | Print | Product List | Glossary On
Versions: 1 2 3 4 5 6 7 8 9 10 11 12 13 14 15 16 17 18 19 20 21 22 23 24 25 26 27 28 29 30 31 32 33 34 35 36 37 38 39 40 41 42 43 44 45 46 47 48 49 50
738
AXUS43 KGID 271302
MISGRI

GID CWA HOURLY WEATHER ROUNDUP
NATIONAL WEATHER SERVICE HASTINGS NE
800 AM CDT TUE JUN 27 2017

NOTE: "FAIR" INDICATES FEW OR NO CLOUDS BELOW 12,000 FEET WITH NO
SIGNIFICANT WEATHER AND/OR OBSTRUCTIONS TO VISIBILITY.

...SOUTH CENTRAL NEBRASKA...

CITY           SKY/WX    TMP DP  RH WIND       PRES   REMARKS
GRAND ISLAND   SUNNY     60  59  96 SE7       30.07S
HASTINGS       MOSUNNY   60  55  83 SE10      30.07S
KEARNEY        MOSUNNY   61  55  82 SE12      30.05F
ORD            PTSUNNY   60  55  83 SE9       30.04F HAZE
YORK           SUNNY     57  57 100 SE7       30.08F
AURORA         SUNNY     59  59 100 SE7       30.07F
LEXINGTON      SUNNY     61  57  85 SE12      30.03F
HOLDREGE       SUNNY     61  56  85 SE15      30.02F
HEBRON         SUNNY     59  59  99 SE6       30.06F

...NEBRASKA PANHANDLE...

CITY           SKY/WX    TMP DP  RH WIND       PRES   REMARKS
CHADRON        MOSUNNY   65  55  70 S17G26    29.84S
ALLIANCE       CLOUDY    61  56  83 S25G35    29.92F
SCOTTSBLUFF    CLOUDY    64  57  78 SE15      29.93F
SIDNEY         CLOUDY    60  57  89 S16G24    29.98F

...WESTERN AND NORTH CENTRAL NEBRASKA...

CITY           SKY/WX    TMP DP  RH WIND       PRES   REMARKS
VALENTINE      CLOUDY    62  53  72 S18       29.96F
AINSWORTH      SUNNY     60  55  83 S18       29.99F
ONEILL         CLOUDY    54  54  99 S12       30.04F FOG
BROKEN BOW     SUNNY     60  56  86 SE12      30.02F
IMPERIAL       CLOUDY    61  57  87 S14       30.01S
NORTH PLATTE   PTSUNNY   62  58  86 SE12      30.01F
MCCOOK         CLOUDY    61  60  97 SE12      30.01F

...EASTERN NEBRASKA...

CITY           SKY/WX    TMP DP  RH WIND       PRES   REMARKS
NORFOLK        SUNNY     60  55  83 S9        30.07S
SO SIOUX CITY  SUNNY     55  49  80 SE7       30.09S
TEKAMAH        SUNNY     59  48  67 SE9       30.10S
COLUMBUS       SUNNY     59  56  89 S7        30.09F
ALBION         FOG       55  53  92 SE7       30.07F VSB 1/2
OMAHA EPPLEY   MOSUNNY   61  50  67 SE10      30.11S
OFFUTT AFB     SUNNY     60  52  76 SE8       30.11R
MILLARD        SUNNY     63  58  84 SE6       30.11R
LINCOLN        SUNNY     60  57  89 S7        30.10F
NEBRASKA CITY  SUNNY     60  60 100 SE6       30.11S
BEATRICE       SUNNY     61  58  90 SE6       30.08F
FALLS CITY     SUNNY     58  58 100 SE6       30.10F

...NORTHERN KANSAS...

CITY           SKY/WX    TMP DP  RH WIND       PRES   REMARKS
GOODLAND       FOG       59  59 100 SE13      30.00F VSB 1/4
HILL CITY      CLOUDY    63  62  97 SE8       30.01F FOG
NORTON         CLOUDY    59  55  88 SE15      30.01
PHILLIPSBURG   CLOUDY    63  63 100 E10       30.02F
SMITH CENTER   SUNNY     63  57  82 E17       30.02F
HAYS           CLOUDY    65  62  90 SE14      30.01
RUSSELL        PTSUNNY   64  61  90 SE15      30.01F
CONCORDIA      PTSUNNY   60  60 100 E10       30.05F
SALINA         CLOUDY    66  61  84 SE13      30.05S
TOPEKA         SUNNY     63  60  90 E8        30.09F



USA.gov is the U.S. government's official web portal to all federal, state and local government web resources and services.